La Paz, Mexico

1:43 PM MDT on June 27, 2017 (GMT -0600)
Gen Manuel Marquez De Leon

Weather History for MMLP - January, 2013

Change the Weather History Date:

Saturday, January 19, 2013

  Actual Average Record
Temperature  
Mean Temperature 66 °F -  
Max Temperature 78 °F 76 °F 87 °F (1998)
Min Temperature 53 °F 53 °F 46 °F (2006)
Growing Degree Days 16 (Base 50)    
Moisture  
Dew Point 50 °F    
Average Humidity 55    
Maximum Humidity 87    
Minimum Humidity 29    
Precipitation  
Precipitation 0.00 in - - ()
Sea Level Pressure  
Sea Level Pressure 30.11 in    
Wind  
Wind Speed 5 mph ()    
Max Wind Speed 17 mph    
Max Gust Speed -    
Visibility 10.4 miles    
Events      
Averages and records for this station are not official NWS values.
T = Trace of Precipitation, MM = Missing Value Source: Averaged Metar Reports

Daily Weather History Graph

Daily Weather History Graph

Search for Another Location

Airport or City:

Trip Planner

Search our weather history database for the weather conditions in past years. The results will help you decide how hot, cold, wet, or windy it might be!

Date:

Astronomy

Jan. 19, 2013 Rise Set
Actual Time 7:06 AM MST 5:58 PM MST
Civil Twilight 6:42 AM MST 6:22 PM MST
Nautical Twilight 6:14 AM MST 6:50 PM MST
Astronomical Twilight 5:47 AM MST 7:17 PM MST
Moon 12:19 PM MST (1/19) 12:53 AM MST (1/19)
Length of Visible Light 11h 40m
Length of Day
10h 52m
First Quarter, 58% of the Moon is Illuminated
Jan 19
First Quarter
Jan 26
Full
Feb 3
Last Quarter
Feb 10
New
Feb 17
First Quarter

Hourly Weather History & Observations

Time (MST) Temp. Dew Point Humidity Pressure Visibility Wind Dir Wind Speed Gust Speed Precip Events Conditions
1:50 AM 60 °F 52 °F 68% 30.07 in 2 mi South 2.2 mph - -  
4:40 AM 57 °F 51 °F 75% 30.10 in 2 mi South 2.2 mph - -  
6:40 AM 48.2 °F 44.6 °F 87% 30.09 in 10.0 mi Calm Calm - N/A   Clear
7:40 AM 56 °F 50 °F 75% 30.14 in 16 mi Calm Calm - -  
7:44 AM 50.0 °F 46.4 °F 87% 30.12 in 10.0 mi Calm Calm - N/A   Clear
8:53 AM 62.6 °F 53.6 °F 72% 30.14 in 10.0 mi Calm Calm - N/A   Clear
9:48 AM 68.0 °F 51.8 °F 56% 30.15 in 10.0 mi NNW 6.9 mph - N/A   Clear
10:50 AM 74 °F 54 °F 39% 30.14 in 19 mi NW 8.9 mph - -  
10:50 AM 69.8 °F 48.2 °F 46% 30.19 in 10.0 mi NNW 13.8 mph - N/A   Clear
11:42 AM 71.6 °F 46.4 °F 41% 30.12 in 10.0 mi North 11.5 mph - N/A   Clear
12:42 PM 71.6 °F 46.4 °F 41% 30.09 in 10.0 mi NW 9.2 mph - N/A   Clear
1:43 PM 71.6 °F 46.4 °F 41% 30.12 in 10.0 mi NNW 17.3 mph - N/A   Clear
1:50 PM 76 °F 52 °F 33% 30.06 in 19 mi NNW 8.9 mph - -  
2:46 PM 75.2 °F 48.2 °F 38% 30.04 in 10.0 mi NNW 11.5 mph - N/A   Clear
3:57 PM 71.6 °F 50.0 °F 46% 30.04 in 10.0 mi North 11.5 mph - N/A   Clear
4:47 PM 69.8 °F 53.6 °F 56% 30.16 in 10.0 mi NNW 11.5 mph - N/A   Clear
4:50 PM 75 °F 49 °F 29% 30.05 in 19 mi East 8.9 mph - -   Clear
5:44 PM 69.8 °F 48.2 °F 46% 30.06 in 10.0 mi North 13.8 mph - N/A   Partly Cloudy
6:49 PM 68.0 °F 50.0 °F 52% 30.07 in 10.0 mi North 9.2 mph - N/A   Scattered Clouds
7:50 PM 67 °F 52 °F 48% 30.08 in 2 mi NE 4.5 mph - -  
7:52 PM 64.4 °F 48.2 °F 56% 30.17 in 10.0 mi Calm Calm - N/A   Partly Cloudy
8:42 PM 62.6 °F 48.2 °F 59% 30.09 in 10.0 mi Calm Calm - N/A   Partly Cloudy
9:46 PM 60.8 °F 50.0 °F 68% 30.09 in 10.0 mi Calm Calm - N/A   Clear
10:40 PM 57.2 °F 48.2 °F 72% 30.22 in 10.0 mi Calm Calm - N/A   Clear